Location: Praha
(50.0830°N, 14.4670°E)
Time: 04:50:05
(UTC+02:00)

ISS - Pass Details

Date: 11 July 2024
Orbit: 409 x 423 km, 51.6° (Epoch: 24 July)

Event Time Altitude Azimuth Distance (km) Brightness Sun altitude
Rises 23:49:01 0° 265° (W) 2,335 0.2 -15.9°
Reaches altitude 10° 23:51:06 10° 268° (W) 1,476 -0.8 -16.0°
Maximum altitude 23:54:24 69° 353° (N) 442 -3.5 -16.2°
Drops below altitude 10° 23:57:43 10° 77° (ENE) 1,482 -1.0 -16.3°
Sets 23:59:49 0° 80° (E) 2,347 0.0 -16.4°
